GFSSE_500_rhum_273.txt.gz
RH
5 4 14 10 7 4 2 3 3 3 3 4 7 9 7 4 3 2 3 3 6 11 8 6 8 2 2 2 2 2 2 3 3 4 5 5 4 4 4 6 8 12 16
6 4 11 14 11 6 4 3 3 3 3 4 4 8 6 4 3 2 3 3 3 3 4 3 2 2 2 2 2 2 3 4 4 4 4 4 4 6 8 11 15 20 23
13 5 5 16 14 9 6 4 3 3 3 4 3 5 6 5 3 2 2 3 3 2 3 2 2 2 2 2 2 3 4 4 4 4 4 5 7 9 12 17 20 22 22
21 9 4 10 17 14 8 5 4 3 4 4 4 3 7 4 3 2 2 2 2 2 2 2 2 2 2 2 2 3 3 3 4 4 6 6 10 13 16 19 21 22 24
37 22 7 5 15 18 13 7 5 4 4 4 4 4 3 4 3 2 2 1 2 1 1 2 2 2 2 2 2 3 3 4 5 7 7 10 10 14 16 16 17 17 18
54 49 21 7 6 16 19 13 8 6 5 4 4 4 4 3 3 3 2 1 2 1 1 1 2 2 2 2 3 4 5 5 7 10 10 11 12 13 12 13 13 13 14
59 62 30 14 7 6 12 18 16 9 6 6 5 4 3 4 3 3 2 2 2 1 2 2 2 2 2 3 3 5 5 7 9 10 11 11 12 12 11 11 11 11 10
56 60 42 24 10 7 7 6 13 18 13 7 6 6 5 4 4 3 3 2 2 2 2 2 2 2 2 3 5 5 5 7 9 10 11 11 11 11 11 10 9 8 8
60 60 64 31 20 10 8 8 7 8 17 18 10 7 6 5 4 3 3 2 2 2 2 2 2 2 2 3 3 5 4 6 8 9 11 11 11 10 10 9 8 7 7
58 57 58 53 34 24 12 9 9 8 7 10 21 17 11 7 6 4 3 2 2 2 2 2 2 2 2 2 2 3 4 6 7 8 10 10 11 11 9 8 8 8 8
58 56 52 48 45 37 28 14 11 10 8 7 7 14 21 15 9 6 5 3 2 2 2 2 2 2 2 2 2 2 3 4 4 7 8 9 10 10 10 8 8 8 7
54 59 56 48 44 43 33 25 14 11 9 7 6 6 7 15 20 14 9 6 4 2 2 2 2 2 2 2 2 2 2 4 5 6 7 9 10 10 10 9 8 8 7
33 56 62 56 52 45 48 31 22 21 14 10 8 7 6 6 7 14 19 15 9 6 4 2 2 2 2 2 2 2 2 2 4 5 7 8 8 10 10 9 9 8 8
24 37 54 59 61 56 48 41 34 32 32 20 13 10 8 7 6 6 6 13 19 17 11 7 5 3 2 2 2 2 2 2 3 4 6 7 8 9 10 10 10 9 8
22 23 34 48 52 57 54 50 40 38 38 32 21 17 14 12 9 8 6 6 6 11 18 18 15 10 6 5 4 3 3 3 3 4 7 10 11 11 12 11 10 9 8
40 26 23 28 37 44 49 51 50 44 41 45 31 26 22 17 15 12 9 8 7 6 6 7 14 18 18 17 15 13 11 11 12 13 14 16 15 14 13 12 10 7 5
20 37 48 32 24 27 36 46 48 52 45 44 48 33 31 27 20 16 15 11 9 9 8 6 5 6 8 14 17 18 17 17 17 17 16 16 15 12 8 5 5 5 5
26 21 19 45 48 39 24 33 46 48 50 45 50 50 37 33 28 24 20 18 14 11 10 10 7 5 5 5 6 6 6 7 7 7 7 6 5 5 5 5 5 5 5
24 22 21 18 30 47 49 29 29 43 50 47 45 49 44 42 38 29 29 27 20 17 15 14 12 10 7 5 5 5 5 5 6 6 6 6 6 7 7 6 6 5 6
53 50 40 30 23 25 47 48 34 26 42 56 46 48 52 48 46 42 35 32 28 24 21 17 16 15 12 10 9 7 6 6 5 5 5 5 5 5 5 5 5 6 6
22 35 36 35 28 24 31 45 47 44 34 36 62 53 49 52 46 46 46 44 35 27 28 26 19 18 16 16 12 12 11 10 9 8 7 6 6 6 6 7 7 8 8
28 23 20 18 25 21 19 25 40 48 55 49 36 58 60 54 56 52 46 55 48 32 30 26 25 28 28 24 19 19 16 13 11 14 12 10 10 9 10 11 11 12 15
6 11 18 24 24 29 20 16 22 31 49 54 56 37 68 72 64 72 55 52 55 41 32 35 32 31 41 43 34 22 21 22 26 21 18 18 16 15 14 14 15 16 20
1 1 2 4 12 26 30 27 16 25 33 50 63 60 45 58 82 78 68 55 47 53 43 36 52 65 62 62 58 36 29 37 41 35 34 30 24 25 24 18 15 17 20
1 1 1 1 2 4 15 27 29 20 25 35 54 74 65 59 48 87 87 70 64 52 47 47 55 74 84 77 74 74 55 49 51 44 38 54 57 74 65 41 30 28 37
19 11 3 1 1 1 1 4 15 25 23 27 33 62 80 84 73 70 93 90 78 66 54 54 67 71 83 82 84 80 81 74 70 65 52 61 64 66 58 63 56 64 65

GFSSE_500_rhum_276.txt.gz
RH
8 4 11 14 9 5 2 3 3 4 4 5 10 8 6 4 4 4 3 9 11 7 7 4 2 2 2 2 2 2 2 3 5 5 5 4 4 7 11 15 19 22 22
12 6 8 17 12 7 4 3 3 4 4 4 5 9 7 4 4 4 4 4 8 7 7 2 2 2 2 2 2 3 4 4 5 4 4 6 9 11 16 21 23 21 21
22 8 5 19 15 10 6 4 3 4 4 4 4 6 8 4 4 4 4 3 3 4 3 2 2 2 2 2 3 4 4 4 4 4 6 8 11 16 19 21 22 21 21
42 18 7 10 18 15 9 5 4 3 4 5 5 4 7 5 4 3 4 3 3 3 2 2 2 2 2 2 4 4 4 4 4 6 9 11 14 17 19 20 20 20 20
63 37 10 6 13 18 15 8 5 4 4 4 5 5 4 6 4 3 3 3 2 2 2 2 2 2 2 2 3 3 3 4 8 10 10 12 15 15 15 15 14 15 16
55 56 26 8 6 11 19 15 9 5 5 4 5 5 6 4 4 4 2 2 2 2 2 2 2 2 2 2 3 4 4 6 10 11 11 12 12 12 12 11 12 11 10
51 59 35 18 8 7 6 16 16 10 6 6 5 5 4 4 4 4 3 2 2 2 2 2 2 2 2 3 4 3 4 8 11 12 12 11 11 11 10 10 9 9 9
46 56 58 26 14 8 8 7 9 16 14 7 6 6 5 4 4 4 4 3 2 2 2 2 2 2 2 2 4 4 5 8 11 11 12 12 11 10 10 9 7 7 6
42 54 59 53 24 13 9 8 8 7 12 18 11 7 7 6 5 4 3 3 2 2 2 2 2 2 2 2 2 4 5 6 8 10 11 11 12 10 10 8 8 7 7
37 46 54 58 51 28 16 10 10 10 8 7 16 17 11 8 7 6 4 3 3 2 2 2 2 2 2 2 2 2 4 4 5 7 10 10 11 11 10 8 8 8 7
29 38 52 55 54 48 34 21 13 11 9 8 7 7 16 18 12 8 7 6 4 3 3 2 2 2 2 2 2 2 2 3 4 7 9 10 10 11 10 9 8 8 8
28 33 52 54 57 51 44 35 19 13 11 9 8 8 7 8 17 19 14 9 7 5 3 3 2 2 2 2 2 2 2 2 4 6 7 8 9 10 10 9 9 8 8
30 21 41 57 62 62 55 45 34 23 13 13 12 8 8 7 7 8 17 20 17 11 7 5 3 2 2 2 2 2 2 2 2 3 4 6 6 7 8 9 10 10 9
37 29 21 29 43 58 60 61 48 35 26 28 21 14 13 10 8 7 6 7 13 20 20 14 9 6 4 3 2 2 2 2 2 2 3 3 4 6 8 10 11 11 10
47 46 24 23 33 47 54 58 60 61 40 34 33 23 17 17 15 11 8 7 6 6 10 16 20 19 14 9 6 5 4 3 3 3 3 3 5 8 13 14 14 12 11
34 60 57 30 23 28 45 48 53 68 67 58 39 40 26 20 19 19 16 11 9 8 7 6 6 10 18 21 20 17 12 10 9 8 10 13 16 18 18 16 15 14 10
19 26 30 46 34 22 23 32 42 49 57 76 61 49 43 30 29 21 21 19 14 11 10 10 8 6 6 7 12 19 21 20 20 21 22 22 21 19 18 17 10 6 6
22 18 20 33 48 43 33 28 24 30 40 52 73 66 54 46 41 34 26 21 22 20 16 14 12 10 8 6 6 7 7 8 10 12 14 16 16 13 9 6 6 6 6
33 23 17 18 24 47 54 53 45 32 24 33 47 73 81 60 57 49 38 31 24 24 24 21 18 15 14 11 8 6 5 6 6 6 7 8 7 8 8 8 9 8 8
34 31 28 18 18 23 25 37 50 52 46 29 27 43 66 84 64 64 50 41 35 29 30 31 28 22 19 16 13 11 9 7 6 6 6 6 7 8 8 9 9 9 9
12 15 18 25 22 16 18 20 25 27 57 51 35 28 35 58 79 70 53 50 46 40 37 31 31 29 27 21 16 15 15 14 12 10 10 8 8 9 8 9 9 9 9
12 11 11 15 17 19 20 15 16 21 29 54 53 42 32 30 51 70 68 56 52 47 43 42 36 32 31 32 25 21 19 19 19 17 16 15 12 11 9 10 10 10 12
3 4 4 4 6 12 22 23 19 17 19 31 46 50 42 43 40 49 69 75 60 56 50 47 42 38 33 33 31 29 26 24 28 28 24 23 19 16 16 15 16 19 21
1 1 1 1 2 2 2 7 18 24 14 14 20 31 44 52 50 53 48 57 87 71 60 62 61 53 42 38 36 35 35 28 28 28 38 36 35 27 25 28 29 34 40
1 1 1 1 1 1 1 1 2 3 14 19 11 18 25 38 51 60 52 47 51 88 91 71 73 74 63 58 56 50 44 38 31 26 24 51 45 45 46 47 48 48 48
10 12 9 5 2 2 1 1 1 1 1 4 21 13 18 27 38 48 66 63 59 56 70 91 79 78 82 74 68 64 66 64 58 45 27 28 50 73 54 56 66 76 80

GFSSE_500_rhum_279.txt.gz
RH
7 5 15 15 9 5 2 3 3 4 4 4 8 8 4 4 4 5 11 10 6 9 6 3 2 2 2 2 2 2 3 4 5 5 4 5 8 13 17 21 22 21 19
12 6 12 18 11 7 4 3 3 4 4 4 5 8 5 4 4 4 7 11 8 6 2 2 2 2 2 2 3 4 4 5 4 4 5 9 13 18 22 22 22 21 20
24 7 6 19 14 9 6 3 3 4 4 4 4 6 6 4 4 4 5 5 7 5 2 2 2 2 3 4 4 4 4 4 4 6 9 12 16 20 21 22 22 21 21
48 15 7 12 18 14 8 5 4 4 4 5 5 4 7 5 4 4 4 4 5 4 2 2 2 2 3 4 4 4 4 5 7 8 12 16 18 19 19 18 17 17 18
58 44 9 6 16 20 15 8 5 4 4 5 6 6 5 6 5 4 4 4 4 3 2 2 2 2 3 4 4 4 5 6 8 11 13 15 15 14 13 13 12 12 12
52 58 24 8 6 13 20 18 9 6 5 5 5 6 6 5 4 5 4 3 4 3 2 2 2 2 2 3 3 3 5 7 10 11 12 12 12 11 11 10 10 9 9
37 55 50 19 8 7 8 18 20 13 7 6 5 6 5 5 5 4 4 3 3 3 2 2 2 2 3 3 3 3 4 6 8 11 11 11 11 10 10 9 8 6 6
34 44 58 45 16 9 8 8 11 18 18 10 6 6 6 5 4 5 5 4 2 3 3 2 2 3 3 3 3 3 3 4 6 8 11 12 11 10 9 8 7 7 7
48 38 51 58 42 16 9 9 8 9 14 21 18 10 7 7 6 4 4 4 3 2 3 3 2 2 3 3 3 3 3 3 3 5 8 10 11 11 10 9 8 8 8
41 36 41 52 57 55 26 10 10 10 8 8 15 21 17 10 7 6 5 4 4 3 2 2 2 2 2 2 2 3 3 3 3 3 6 9 9 11 11 10 10 8 8
40 39 31 46 59 58 50 42 20 10 10 9 8 9 15 22 17 10 7 7 5 4 4 3 3 2 2 2 2 3 3 3 3 3 3 4 6 8 10 10 10 10 9
45 45 31 29 48 58 58 56 45 23 11 10 8 8 8 9 16 22 18 12 8 6 5 4 4 3 3 2 2 2 2 2 2 2 2 3 3 4 6 9 10 10 11
45 42 37 27 31 52 56 60 60 51 33 14 11 9 8 7 7 8 13 22 21 15 9 7 5 4 4 4 3 2 2 2 2 2 2 2 3 3 4 5 7 10 12
42 41 39 36 28 29 49 58 62 70 66 43 22 19 12 9 8 7 7 8 10 18 22 21 13 8 6 5 4 3 3 3 2 2 2 2 3 3 3 4 8 11 13
55 48 46 44 40 28 22 36 54 62 68 76 70 44 34 19 12 10 8 8 8 7 8 11 18 22 21 16 11 8 6 5 4 3 3 3 3 3 4 7 14 18 16
64 60 53 49 50 53 35 23 33 47 54 63 69 71 65 44 32 17 13 11 11 9 8 8 7 7 9 16 23 22 19 14 10 8 6 6 6 8 12 17 20 19 16
31 33 30 37 44 53 58 44 25 26 39 49 55 64 70 70 62 45 25 19 14 13 12 10 9 9 8 7 7 9 15 20 21 21 20 19 20 20 20 20 19 18 18
30 26 23 24 27 51 52 46 44 27 24 30 39 48 56 65 68 66 53 36 30 21 14 14 13 11 10 10 9 8 7 6 8 12 17 19 21 21 20 20 18 13 7
26 22 20 19 20 24 28 34 45 48 39 31 30 29 37 48 55 66 67 62 55 44 30 16 14 15 16 14 12 11 10 8 6 6 7 8 8 9 9 8 8 7 7
27 23 19 15 12 14 17 23 35 46 54 50 47 39 31 32 46 52 58 70 65 62 56 35 22 20 18 18 17 16 15 13 12 9 6 7 8 8 8 8 8 8 8
20 18 17 14 10 10 13 16 16 21 33 55 51 53 50 45 32 37 56 64 71 66 62 60 47 32 29 27 22 21 18 16 16 16 14 10 8 8 7 7 6 6 6
16 14 12 12 13 11 8 6 10 14 13 17 30 39 42 49 56 46 42 55 61 70 69 69 68 56 52 43 36 28 24 23 23 22 19 19 17 14 10 9 8 8 7
3 3 4 5 4 4 4 5 8 9 11 13 15 18 22 32 46 56 53 42 46 60 70 71 77 71 62 57 51 49 44 34 35 35 30 28 28 23 21 18 14 12 10
2 2 2 1 1 2 2 1 1 2 2 5 10 13 16 23 31 41 50 53 50 41 52 67 72 73 72 66 64 59 56 54 50 54 50 39 35 36 34 30 27 22 18
1 1 1 1 1 1 1 1 1 1 1 1 1 3 9 12 13 24 28 36 45 51 50 50 64 62 92 88 69 64 67 65 66 63 55 70 66 56 52 47 41 44 42
1 1 1 1 1 3 5 6 5 4 3 2 1 1 1 5 11 12 14 20 26 37 46 55 51 54 60 74 91 99 85 62 67 75 74 62 57 72 76 72 68 54 52

GFSSE_500_rhum_282.txt.gz
RH
6 14 18 11 6 4 3 3 3 3 3 7 8 5 4 4 6 14 10 7 11 7 4 3 2 2 2 2 2 3 4 5 5 5 5 8 13 17 21 22 21 20 19
6 8 20 14 8 5 3 3 3 3 3 4 7 6 4 4 4 10 12 9 8 3 2 2 2 2 2 2 3 4 5 5 5 5 8 12 17 22 22 22 22 21 21
13 6 17 18 10 6 4 4 3 3 4 4 5 6 4 5 5 5 6 9 6 2 2 2 2 2 3 3 4 5 4 4 6 8 10 15 18 22 23 23 21 20 20
38 8 7 20 16 9 5 4 4 4 4 4 4 6 4 4 5 5 4 6 6 2 2 2 2 3 4 4 4 4 4 6 8 10 13 17 19 20 18 17 18 19 20
54 32 7 10 20 15 9 6 5 4 4 5 6 5 4 4 4 4 4 4 5 2 2 2 2 3 4 4 4 4 5 7 8 9 13 15 15 14 14 13 12 11 12
52 50 21 7 9 20 16 11 7 6 5 5 6 6 5 4 4 4 3 3 4 3 2 2 3 3 4 4 4 4 5 7 8 9 11 12 12 12 11 11 10 10 9
40 54 49 24 8 7 16 18 13 9 7 6 6 6 6 6 5 4 4 3 3 3 2 2 2 3 3 4 4 4 4 5 6 8 9 11 12 11 10 9 8 8 7
38 47 57 57 33 9 7 8 16 17 12 8 7 6 7 6 6 6 5 3 3 3 2 2 2 3 3 3 4 4 4 5 5 6 8 10 11 11 10 9 8 8 8
48 47 50 58 59 57 22 9 8 10 18 16 11 8 7 7 6 6 6 5 3 3 3 2 2 2 3 3 4 4 4 4 4 4 6 9 11 11 10 10 9 8 8
37 33 32 47 58 59 55 48 17 11 8 8 17 18 13 9 7 7 6 6 6 3 3 3 3 3 2 3 3 3 4 3 3 3 3 5 8 10 11 11 10 10 8
41 36 38 32 44 58 60 56 53 35 12 10 8 8 15 18 14 8 7 6 5 5 4 3 3 3 3 2 2 2 2 3 3 3 3 3 4 6 8 10 11 10 10
34 38 41 40 29 41 56 58 61 64 48 18 11 8 8 8 14 18 14 8 6 5 5 4 3 3 2 2 2 2 2 2 2 2 2 3 3 3 4 6 7 9 10
44 39 42 42 38 32 32 55 58 62 66 65 40 15 12 8 7 8 11 18 16 10 7 6 5 4 4 3 3 3 3 3 2 2 2 2 2 2 3 4 4 5 7
52 47 39 40 40 38 37 28 49 61 62 66 68 55 39 31 15 9 8 7 9 18 19 13 8 7 6 5 4 4 3 3 3 3 3 2 2 2 3 3 3 4 5
48 47 55 53 47 46 46 43 28 38 59 58 62 62 60 54 46 34 16 10 8 7 7 13 19 20 16 11 9 7 6 5 5 4 3 3 3 3 3 3 3 4 6
58 60 62 65 65 60 54 56 50 36 29 43 53 59 61 64 62 54 49 34 19 12 10 8 7 7 13 19 22 21 19 15 12 9 7 6 5 5 4 5 6 8 13
60 56 54 56 57 54 53 51 60 56 50 34 28 43 54 57 63 61 62 57 53 34 20 15 13 9 8 6 7 8 13 17 20 20 21 21 20 19 18 18 19 20 21
34 32 33 34 31 29 27 28 34 54 56 53 38 38 29 40 44 53 56 61 63 60 51 36 28 20 15 10 9 9 7 6 6 8 10 14 20 23 24 25 25 23 22
31 30 28 26 26 27 24 23 23 27 43 48 47 43 34 33 32 40 46 53 60 62 60 58 58 49 34 19 15 13 10 10 9 8 7 6 7 8 10 12 17 14 12
36 31 22 16 14 14 13 13 15 18 20 24 30 34 45 46 40 38 38 56 57 55 61 64 62 61 62 58 35 19 17 15 14 12 12 10 8 7 7 8 9 9 8
30 26 24 18 15 12 10 12 10 8 9 12 17 24 35 43 50 48 49 44 44 65 64 62 61 63 61 60 60 53 37 31 29 25 20 18 16 14 10 8 7 8 8
20 19 20 18 15 15 14 12 10 10 9 7 6 9 15 24 38 52 49 50 50 48 46 62 68 65 57 64 62 60 58 56 54 50 43 37 35 26 19 18 14 10 8
23 18 15 12 10 9 10 10 10 11 11 11 11 9 7 7 10 18 35 41 37 44 50 53 58 65 66 68 64 65 64 61 60 60 59 56 57 56 48 37 28 23 18
3 2 2 2 2 2 2 2 2 2 2 2 3 3 3 5 7 8 10 20 25 30 40 49 55 58 54 60 68 66 64 76 70 67 66 62 62 62 62 62 56 49 41
1 1 1 1 1 1 1 1 1 1 1 1 1 1 1 1 1 2 5 9 11 21 28 37 43 50 56 51 53 55 76 69 92 90 98 76 72 66 63 64 64 58 58
1 1 1 1 1 1 2 3 7 8 11 13 12 9 6 4 2 2 1 2 5 12 16 22 28 30 34 42 51 51 56 92 75 88 92 94 78 82 82 70 67 70 65

GFSSE_500_rhum_288.txt.gz
RH
13 15 10 6 3 4 3 4 4 5 3 2 3 3 6 8 5 8 8 7 5 5 6 5 4 3 2 3 3 5 6 6 6 7 9 12 17 22 22 20 19 17 16
6 17 14 9 6 3 3 3 3 5 4 2 3 4 4 9 9 9 11 5 4 4 3 3 2 2 3 4 5 6 5 5 6 8 11 17 22 23 21 21 20 20 19
6 10 18 13 8 5 3 3 3 3 4 3 5 8 4 4 6 10 8 3 2 2 2 2 2 2 4 5 6 5 5 6 9 11 14 19 22 22 22 22 22 22 22
12 7 12 18 12 7 5 7 8 3 4 4 6 10 5 3 4 6 7 2 2 2 2 2 2 3 4 5 5 5 6 8 10 12 16 19 21 21 20 19 19 21 22
46 19 7 10 19 14 7 9 10 6 7 6 12 13 5 2 3 3 5 2 2 2 2 2 2 4 4 5 4 5 6 9 10 12 15 17 18 16 16 17 18 19 18
56 54 43 18 8 14 18 9 7 9 9 6 11 8 5 2 2 2 3 5 2 2 2 2 3 4 4 4 4 5 6 8 9 11 13 14 13 13 12 11 10 10 9
46 55 53 44 38 10 8 16 15 7 8 12 10 4 2 2 2 2 2 3 3 2 2 2 3 4 4 4 4 4 6 7 8 10 11 12 12 11 11 10 8 7 7
33 44 55 50 44 47 23 11 9 13 16 10 6 4 3 3 2 2 2 2 2 2 2 2 2 3 4 4 4 4 4 7 8 10 10 10 11 11 10 9 8 8 8
32 35 38 55 49 44 51 50 29 14 10 11 16 14 8 5 3 3 3 2 2 2 2 2 2 2 3 3 4 4 4 4 6 8 10 9 11 11 11 10 9 8 8
38 34 40 36 50 55 52 51 55 52 23 12 10 10 16 16 9 5 3 3 2 2 2 2 2 2 2 2 3 3 3 4 5 6 8 6 10 10 11 10 10 9 9
49 36 33 32 34 31 36 51 55 56 58 47 19 12 10 10 14 18 12 7 4 3 2 2 2 2 2 2 2 3 3 3 3 3 5 4 6 6 7 8 9 10 10
54 45 38 37 35 38 38 29 33 45 54 58 57 42 21 14 10 10 12 18 17 10 5 3 2 2 2 2 2 2 2 2 2 3 4 3 3 3 3 3 4 5 6
59 54 53 51 44 41 42 40 39 44 42 49 53 59 60 38 18 17 14 10 11 13 18 15 7 4 3 2 2 2 2 2 2 2 2 2 2 3 3 3 3 3 3
56 54 58 58 50 46 38 39 41 44 54 57 67 67 70 64 69 50 36 27 21 16 12 10 12 18 15 7 4 3 3 2 2 2 2 2 2 2 2 2 2 2 2
61 60 57 61 55 50 46 42 46 50 53 50 49 52 64 80 73 65 67 71 62 43 25 18 14 11 9 10 14 17 16 10 6 4 3 3 2 2 2 2 2 2 2
68 62 59 62 58 54 50 44 45 46 48 56 56 52 55 57 56 76 83 73 65 68 70 59 41 25 19 16 13 10 9 10 11 14 18 17 14 11 7 5 5 4 4
63 62 63 64 61 58 53 46 46 48 46 46 48 45 46 47 54 58 53 53 65 85 73 70 68 67 60 44 26 20 18 15 12 10 9 8 8 9 13 19 20 21 20
62 65 66 64 57 53 47 48 50 47 43 40 37 31 25 25 27 30 46 61 56 48 52 65 82 74 66 62 62 61 44 30 24 20 18 15 13 12 10 9 8 8 8
61 62 61 58 56 54 54 53 41 33 29 26 24 21 18 18 18 17 18 22 33 46 57 52 47 48 59 85 84 74 66 64 57 51 45 38 28 23 19 17 15 13 12
65 65 68 70 57 48 37 37 33 25 18 14 12 10 10 10 10 11 11 10 11 11 16 27 37 35 39 42 47 58 76 85 69 70 64 60 58 56 46 36 30 26 23
75 72 50 50 48 46 44 50 51 29 17 11 12 14 16 17 11 9 7 8 8 10 10 10 9 12 18 23 34 35 45 51 67 77 76 78 70 67 61 59 51 45 43
43 41 40 41 36 26 18 17 20 24 21 19 17 15 16 15 14 13 14 14 14 12 9 8 8 9 11 13 26 23 35 40 39 49 63 76 78 78 67 69 66 58 52
40 37 34 30 19 27 33 21 20 20 19 18 9 7 6 6 6 5 5 5 5 5 5 5 6 7 8 8 10 10 11 16 23 44 37 96 64 60 76 76 84 90 71
32 23 21 26 24 26 22 7 3 3 4 5 4 4 2 2 2 2 1 1 1 1 1 1 2 2 2 2 2 4 6 7 10 12 27 40 51 65 84 96 96 85 90
48 44 42 34 15 3 2 1 1 2 1 1 1 1 1 1 1 1 1 1 2 2 2 3 2 2 1 2 2 2 2 2 2 5 6 12 21 97 46 59 96 95 96
49 45 18 2 1 1 1 1 2 1 1 1 1 1 1 1 2 3 5 4 3 2 2 3 3 3 3 2 2 3 4 4 3 2 2 4 7 33 44 44 96 88 76

GFSSE_500_rhum_291.txt.gz
RH
14 14 9 5 3 3 3 3 4 4 2 2 3 5 5 5 6 6 5 4 4 4 4 4 4 3 2 3 4 6 8 7 7 9 13 16 20 22 22 20 20 19 18
8 17 13 9 6 3 3 3 3 4 2 2 2 4 8 7 7 7 4 3 3 3 3 2 2 2 3 5 8 10 10 9 10 13 16 21 23 22 21 20 21 20 19
6 13 18 13 7 5 4 3 5 6 5 2 7 4 4 6 9 7 3 2 2 2 2 2 2 3 5 8 9 7 6 8 12 14 19 22 22 21 21 22 22 21 20
9 6 15 19 12 6 6 12 12 11 9 8 10 11 3 3 7 5 2 2 2 2 2 2 3 4 6 7 6 5 7 10 13 15 18 20 22 21 20 18 19 20 21
30 10 6 11 18 14 7 9 11 8 10 12 16 13 8 2 5 7 3 2 2 2 2 2 3 4 5 5 5 6 8 11 13 16 18 19 19 17 17 18 20 20 19
47 35 11 7 8 16 17 11 7 11 13 8 14 14 9 2 4 4 4 3 2 2 2 3 3 4 5 5 5 6 8 10 12 14 14 16 14 14 11 10 10 9 9
51 50 39 15 8 8 9 16 16 11 8 12 12 7 4 3 3 2 3 3 2 2 2 3 4 4 4 4 4 4 6 8 10 12 13 12 12 12 11 10 8 7 7
36 46 50 43 25 12 10 9 10 15 17 14 10 7 5 4 4 3 2 3 4 2 2 2 4 4 5 5 5 4 5 7 9 10 10 11 11 11 11 10 8 8 8
37 30 31 53 48 37 24 18 17 12 10 11 17 17 13 8 6 4 4 3 3 3 2 2 2 3 4 4 4 4 4 6 9 10 9 10 10 11 11 10 10 9 9
47 38 36 36 52 56 55 46 35 29 22 13 10 9 14 18 15 9 7 5 4 3 3 3 2 2 2 2 3 3 4 4 6 7 9 7 10 10 10 10 10 10 10
51 48 41 30 31 32 31 41 52 52 47 44 36 19 11 9 12 18 17 12 9 7 5 4 3 3 2 2 2 2 3 3 4 4 5 4 5 7 7 8 9 9 9
58 53 50 33 40 36 38 39 30 33 43 48 50 54 50 43 20 9 9 15 18 16 11 8 6 4 3 3 3 2 2 2 3 3 3 3 3 4 4 4 4 5 6
64 61 57 49 44 43 42 39 40 37 42 41 40 47 49 52 54 51 25 12 9 10 15 18 15 9 7 6 4 3 3 3 3 2 2 2 2 2 2 3 3 3 3
66 66 64 58 58 54 49 44 39 39 38 39 43 48 58 55 66 65 56 40 24 16 12 11 10 13 17 17 12 7 6 5 4 4 3 2 2 2 3 3 3 3 3
71 70 69 60 55 52 61 52 47 41 40 41 42 45 47 46 42 47 66 69 56 48 51 38 31 25 17 13 10 11 14 16 18 16 12 9 7 8 7 7 6 6 6
75 73 72 66 61 57 59 58 53 51 45 41 42 44 44 46 49 47 47 48 51 60 57 55 50 45 44 40 28 20 18 14 11 9 10 12 13 15 16 20 23 24 22
76 74 72 71 64 60 61 62 54 50 47 43 45 46 46 42 42 37 35 36 40 47 54 55 56 52 49 55 57 54 46 47 42 29 22 17 14 12 11 10 10 10 10
77 73 70 66 63 59 61 64 60 53 48 45 50 44 39 32 30 30 24 18 18 18 22 33 50 51 50 53 54 60 67 67 57 58 57 52 44 34 26 21 18 15 13
71 67 66 65 64 64 65 66 62 53 51 52 50 41 27 21 17 13 10 10 9 8 8 9 11 17 26 41 48 47 45 45 54 74 78 72 65 67 61 56 47 31 22
78 71 68 66 65 64 63 59 56 53 45 39 43 37 22 11 8 8 9 10 10 8 6 6 6 6 6 7 8 15 19 22 34 36 42 53 71 71 63 59 61 58 54
74 78 83 74 68 56 51 56 58 43 39 35 35 34 31 24 20 17 17 18 18 18 17 18 18 17 14 11 11 11 10 8 8 17 20 24 36 48 69 80 76 81 88
90 88 85 65 51 46 40 36 27 17 24 28 18 23 25 26 29 26 15 12 12 10 10 9 8 6 6 7 9 10 10 9 10 8 8 10 24 35 50 48 84 96 81
80 68 59 53 42 39 35 26 18 20 26 25 18 13 12 11 10 10 7 5 4 3 2 2 2 2 2 1 1 1 2 2 2 3 5 7 8 9 11 19 56 87 96
60 55 44 39 30 22 20 23 24 23 12 7 4 3 3 2 2 1 1 1 1 1 1 1 1 1 1 2 1 1 1 1 2 2 2 2 2 2 3 7 11 17 35
35 34 39 47 45 40 35 21 6 2 2 2 2 1 1 1 1 1 1 1 1 1 1 1 1 1 1 2 2 2 2 1 1 1 1 3 4 2 2 2 2 14 18
46 48 51 50 46 31 5 2 1 1 2 2 2 1 1 1 1 1 1 1 1 1 1 1 2 2 2 2 2 2 2 2 2 2 2 2 3 6 5 4 4 4 5

GFSSE_500_rhum_297.txt.gz
RH
14 9 6 3 4 4 4 5 7 5 4 3 4 6 5 5 6 5 4 4 4 4 6 9 15 14 6 3 3 4 6 9 11 14 16 19 20 20 19 18 15 14 12
15 12 9 6 4 4 4 5 6 8 4 4 4 7 8 6 6 4 3 3 2 3 3 3 3 3 4 4 6 10 11 14 15 17 18 20 20 19 17 16 14 14 14
12 13 11 7 5 4 4 5 11 13 8 8 16 6 6 7 8 4 2 2 2 2 2 2 2 2 5 8 11 12 13 12 14 17 21 21 20 20 20 20 18 14 16
8 14 13 8 5 5 7 13 14 13 14 12 20 12 4 4 9 3 2 2 2 3 3 3 4 7 10 11 10 7 9 13 15 18 20 20 20 18 19 20 20 19 20
24 12 16 14 8 6 10 13 12 10 11 14 23 18 11 4 6 7 2 2 2 2 3 6 8 8 9 8 6 7 11 13 14 17 19 20 20 18 16 19 20 21 21
35 13 10 17 16 11 8 8 11 16 13 10 15 18 11 5 5 7 5 2 2 2 2 3 5 8 8 6 5 6 10 13 14 15 16 17 16 15 15 14 14 12 10
41 30 9 8 12 16 17 13 9 8 11 16 16 9 6 5 4 4 4 4 2 2 2 2 3 4 5 5 5 5 5 6 9 11 12 13 13 12 12 11 11 10 8
47 44 37 23 10 9 10 13 16 17 14 11 8 7 6 5 5 5 4 4 5 2 2 2 3 3 4 4 5 5 5 5 5 6 8 8 10 11 11 11 11 10 9
40 39 49 44 38 26 16 14 14 12 10 11 12 14 15 14 9 6 5 4 3 4 4 2 2 2 3 4 4 4 4 4 4 4 5 6 7 7 8 10 10 10 10
39 37 41 50 53 49 47 45 43 44 45 35 21 14 10 10 12 15 14 9 5 4 4 4 4 3 2 2 3 3 3 4 4 3 4 4 4 5 6 6 7 8 9
52 50 43 47 47 58 58 55 55 53 52 49 47 49 48 38 29 20 13 10 13 14 10 6 5 4 4 3 3 2 2 2 2 2 3 3 3 4 4 5 4 4 4
66 63 60 53 43 38 36 37 35 33 30 31 36 40 41 43 45 46 46 39 22 11 10 12 15 12 6 5 4 4 3 3 3 2 2 2 3 3 3 3 7 11 3
78 68 64 61 57 46 40 45 44 39 38 36 37 38 38 40 41 44 48 48 49 51 42 20 12 11 10 13 15 12 8 6 5 4 3 3 2 2 2 2 3 10 13
96 78 73 68 66 63 58 52 54 49 47 44 39 37 38 38 37 36 37 37 37 36 36 46 53 43 25 17 15 14 14 14 14 14 13 9 6 4 3 3 4 11 6
87 90 81 74 71 68 65 62 59 56 56 55 53 48 44 40 36 33 31 32 33 36 39 43 40 38 49 56 53 42 42 34 29 20 15 15 15 12 12 12 12 16 18
95 96 96 82 75 67 68 69 64 60 56 55 55 58 58 53 47 43 40 35 35 35 35 38 43 40 38 41 45 52 62 68 58 48 42 44 35 31 21 19 16 17 17
96 98 94 77 72 69 72 72 72 69 67 64 57 52 55 59 54 47 44 38 39 38 38 37 40 40 28 16 14 16 20 41 55 57 54 56 62 67 71 63 50 43 46
98 95 90 76 72 71 70 73 73 72 71 68 65 64 56 55 54 49 43 39 37 38 35 28 27 28 27 12 7 7 6 7 9 21 34 43 50 52 51 49 51 58 61
90 89 93 88 89 81 71 72 73 71 68 66 62 58 52 50 52 49 43 22 31 38 36 29 21 20 16 15 14 14 15 18 18 16 13 10 8 9 12 18 27 39 44
96 98 96 92 94 77 72 71 76 72 65 60 54 49 45 46 42 36 17 16 26 28 30 32 29 26 25 24 19 16 16 15 15 13 12 12 12 12 11 11 12 11 11
91 93 92 92 96 89 86 94 83 69 63 57 55 43 30 24 14 16 24 26 34 31 27 20 18 19 18 14 10 8 5 3 2 2 2 2 2 2 2 3 3 2 3
97 94 94 96 96 96 96 89 76 67 66 59 50 38 30 24 14 12 17 22 18 14 12 9 7 5 3 2 1 1 1 1 1 1 1 1 1 1 1 1 1 1 1
98 92 91 90 82 77 76 74 74 69 68 67 55 46 20 14 19 24 12 7 5 4 3 2 2 1 1 1 1 1 1 1 1 1 1 1 1 1 1 1 1 1 1
94 97 94 89 81 80 80 80 80 86 78 60 31 20 29 25 14 7 2 2 2 1 1 1 1 1 1 1 1 1 1 2 1 1 1 1 1 1 2 2 2 2 2
96 100 98 100 88 89 91 94 95 50 28 27 30 34 10 2 2 2 2 2 1 1 1 1 1 1 1 2 2 2 1 1 1 1 1 2 2 2 2 2 3 3 3
96 100 90 83 97 90 72 59 49 43 39 43 14 2 2 2 2 2 2 2 1 1 2 2 2 2 2 2 2 1 1 1 1 2 2 2 3 5 5 5 5 5 5